| time (UTC) | temp F | wind direction | speed knots | gust knots | rain 1hr in | rain 24hr in | rain mn in | humidity % | barometer mb |
| 20260503200016 | 61 | 338 | 6.1 | 10.4 | 0.00 | 0.00 | 0.00 | 28 | 1010.7 |
| 20260503195538 | 61 | 270 | 8.7 | 15.6 | 0.00 | 0.00 | 0.00 | 28 | 1010.8 |
| 20260503195017 | 61 | 270 | 7.0 | 16.5 | 0.00 | 0.00 | 0.00 | 28 | 1010.7 |
| 20260503194537 | 61 | 270 | 7.8 | 18.2 | 0.00 | 0.00 | 0.00 | 29 | 1010.8 |
| 20260503194016 | 61 | 315 | 6.1 | 13.0 | 0.00 | 0.00 | 0.00 | 30 | 1010.8 |
| 20260503193516 | 61 | 293 | 7.0 | 13.9 | 0.00 | 0.00 | 0.00 | 29 | 1010.8 |
| 20260503193059 | 61 | 315 | 5.2 | 12.2 | 0.00 | 0.00 | 0.00 | 29 | 1010.9 |
| 20260503192517 | 61 | 315 | 7.0 | 14.8 | 0.00 | 0.00 | 0.00 | 31 | 1010.9 |
| 20260503192016 | 60 | 315 | 7.0 | 13.9 | 0.00 | 0.00 | 0.00 | 30 | 1011.0 |
| 20260503191516 | 60 | 338 | 5.2 | 10.4 | 0.00 | 0.00 | 0.00 | 30 | 1011.0 |
| 20260503191016 | 59 | 315 | 6.1 | 13.0 | 0.00 | 0.00 | 0.00 | 31 | 1011.1 |
| 20260503190516 | 60 | 270 | 7.0 | 16.5 | 0.00 | 0.00 | 0.00 | 30 | 1011.1 |
| 20260503190017 | 59 | 315 | 6.1 | 12.2 | 0.00 | 0.00 | 0.00 | 32 | 1011.1 |
| 20260503185516 | 59 | 338 | 5.2 | 11.3 | 0.00 | 0.00 | 0.00 | 31 | 1011.1 |
| 20260503185037 | 58 | 270 | 7.8 | 20.0 | 0.00 | 0.00 | 0.00 | 32 | 1011.4 |
| 20260503184516 | 58 | 270 | 7.0 | 16.5 | 0.00 | 0.00 | 0.00 | 32 | 1011.5 |
| 20260503184037 | 58 | 270 | 7.8 | 17.4 | 0.00 | 0.00 | 0.00 | 33 | 1011.6 |
| 20260503183516 | 57 | 270 | 5.2 | 11.3 | 0.00 | 0.00 | 0.00 | 34 | 1011.6 |
| 20260503183016 | 57 | 315 | 6.1 | 15.6 | 0.00 | 0.00 | 0.00 | 35 | 1011.6 |
| 20260503182516 | 57 | 270 | 6.1 | 13.9 | 0.00 | 0.00 | 0.00 | 34 | 1011.7 |
| 20260503182036 | 57 | 315 | 7.8 | 19.1 | 0.00 | 0.00 | 0.00 | 34 | 1011.7 |
| 20260503181516 | 57 | 315 | 6.1 | 13.9 | 0.00 | 0.00 | 0.00 | 34 | 1011.7 |
| 20260503181016 | 57 | 315 | 7.8 | 14.8 | 0.00 | 0.00 | 0.00 | 34 | 1011.6 |
| 20260503180516 | 57 | 248 | 8.7 | 19.1 | 0.00 | 0.00 | 0.00 | 34 | 1011.7 |
| 20260503180016 | 57 | 270 | 8.7 | 19.1 | 0.00 | 0.00 | 0.00 | 35 | 1011.7 |
| 20260503175516 | 57 | 315 | 7.8 | 18.2 | 0.00 | 0.00 | 0.00 | 35 | 1011.6 |
| 20260503175016 | 57 | 270 | 5.2 | 12.2 | 0.00 | 0.00 | 0.00 | 37 | 1011.6 |
| 20260503174516 | 57 | 293 | 7.0 | 13.0 | 0.00 | 0.00 | 0.00 | 36 | 1011.7 |
| 20260503174016 | 57 | 293 | 6.1 | 12.2 | 0.00 | 0.00 | 0.00 | 35 | 1011.6 |
| 20260503173516 | 57 | 315 | 6.1 | 12.2 | 0.00 | 0.00 | 0.00 | 36 | 1011.7 |
| 20260503173016 | 57 | 315 | 6.1 | 15.6 | 0.00 | 0.00 | 0.00 | 36 | 1011.7 |
| 20260503172516 | 58 | 270 | 6.1 | 12.2 | 0.00 | 0.00 | 0.00 | 35 | 1011.7 |
| 20260503172016 | 58 | 270 | 7.0 | 12.2 | 0.00 | 0.00 | 0.00 | 34 | 1011.8 |
| 20260503171517 | 58 | 270 | 7.0 | 13.0 | 0.00 | 0.00 | 0.00 | 35 | 1011.7 |
| 20260503171016 | 57 | 270 | 6.1 | 13.0 | 0.00 | 0.00 | 0.00 | 36 | 1011.8 |
| 20260503170516 | 56 | 315 | 5.2 | 12.2 | 0.00 | 0.00 | 0.00 | 37 | 1011.8 |
| 20260503150516 | 54 | 315 | 5.2 | 11.3 | 0.00 | 0.00 | 0.00 | 36 | 1012.1 |
| 20260503131016 | 50 | 338 | 4.3 | 10.4 | 0.00 | 0.00 | 0.00 | 51 | 1012.3 |
| 20260503130517 | 50 | 315 | 5.2 | 12.2 | 0.00 | 0.00 | 0.00 | 51 | 1012.4 |
| 20260503110516 | 47 | 315 | 6.1 | 12.2 | 0.00 | 0.00 | 0.00 | 55 | 1011.5 |
| 20260503081517 | 49 | 0 | 2.6 | 9.6 | 0.00 | 0.01 | 0.00 | 51 | 1010.3 |
| 20260503081017 | 49 | 23 | 2.6 | 7.8 | 0.00 | 0.01 | 0.00 | 51 | 1010.3 |
| 20260503080558 | 49 | 0 | 2.6 | 9.6 | 0.00 | 0.01 | 0.00 | 51 | 1010.3 |
| 20260503072516 | 50 | 338 | 1.7 | 5.2 | 0.00 | 0.01 | 0.00 | 50 | 1010.2 |
| 20260503072039 | 50 | 23 | 1.7 | 7.8 | 0.00 | 0.01 | 0.00 | 50 | 1010.3 |
| 20260503071538 | 50 | 338 | 2.6 | 8.7 | 0.00 | 0.01 | 0.00 | 50 | 1010.3 |
| 20260503071017 | 51 | 0 | 2.6 | 9.6 | 0.00 | 0.01 | 0.00 | 49 | 1010.2 |
| 20260503070537 | 51 | 23 | 2.6 | 7.0 | 0.00 | 0.01 | 0.00 | 49 | 1010.2 |
| 20260503055016 | 53 | 338 | 3.5 | 8.7 | 0.00 | 0.01 | 0.00 | 45 | 1010.4 |
| 20260503054517 | 53 | 0 | 2.6 | 6.1 | 0.00 | 0.01 | 0.00 | 45 | 1010.5 |
| 20260503054022 | 53 | 0 | 3.5 | 7.8 | 0.00 | 0.01 | 0.00 | 44 | 1010.5 |
| 20260503053520 | 53 | 338 | 2.6 | 7.8 | 0.00 | 0.01 | 0.00 | 44 | 1010.6 |
| 20260503053018 | 53 | 338 | 2.6 | 7.0 | 0.00 | 0.01 | 0.00 | 43 | 1010.6 |
| 20260503052536 | 53 | 338 | 3.5 | 7.0 | 0.00 | 0.01 | 0.00 | 43 | 1010.5 |
| 20260503052016 | 53 | 315 | 3.5 | 7.8 | 0.00 | 0.01 | 0.00 | 42 | 1010.7 |
| 20260503051516 | 53 | 338 | 2.6 | 8.7 | 0.00 | 0.01 | 0.00 | 42 | 1010.8 |
| 20260503051016 | 53 | 338 | 3.5 | 7.8 | 0.00 | 0.01 | 0.00 | 42 | 1010.9 |
| 20260503050517 | 53 | 338 | 3.5 | 10.4 | 0.00 | 0.01 | 0.00 | 41 | 1010.8 |
| 20260503050016 | 53 | 0 | 3.5 | 10.4 | 0.00 | 0.01 | 0.00 | 41 | 1011.0 |
| 20260503045516 | 54 | 0 | 2.6 | 7.0 | 0.00 | 0.01 | 0.00 | 41 | 1011.0 |
| 20260503045016 | 54 | 338 | 2.6 | 8.7 | 0.00 | 0.01 | 0.00 | 41 | 1011.1 |
| 20260503044516 | 54 | 338 | 2.6 | 8.7 | 0.00 | 0.01 | 0.00 | 40 | 1010.9 |
| 20260503044016 | 54 | 338 | 3.5 | 9.6 | 0.00 | 0.01 | 0.00 | 40 | 1011.0 |
| 20260503043516 | 54 | 315 | 2.6 | 7.8 | 0.00 | 0.01 | 0.00 | 40 | 1011.0 |
| 20260503043016 | 54 | 338 | 2.6 | 9.6 | 0.00 | 0.01 | 0.00 | 39 | 1011.0 |
| 20260503042516 | 54 | 0 | 3.5 | 9.6 | 0.00 | 0.01 | 0.00 | 39 | 1011.0 |
| 20260503042017 | 54 | 0 | 2.6 | 7.8 | 0.00 | 0.01 | 0.00 | 39 | 1011.1 |
| 20260503041516 | 54 | 338 | 3.5 | 7.8 | 0.00 | 0.01 | 0.00 | 38 | 1011.1 |
| 20260503041016 | 55 | 338 | 1.7 | 8.7 | 0.00 | 0.01 | 0.00 | 39 | 1011.1 |
| 20260503040516 | 55 | 338 | 3.5 | 8.7 | 0.00 | 0.01 | 0.00 | 38 | 1011.2 |
| 20260503040016 | 55 | 338 | 2.6 | 7.0 | 0.00 | 0.01 | 0.00 | 39 | 1011.2 |
| 20260503035516 | 55 | 338 | 2.6 | 8.7 | 0.00 | 0.01 | 0.01 | 39 | 1011.2 |
| 20260503035017 | 55 | 338 | 1.7 | 5.2 | 0.00 | 0.01 | 0.01 | 39 | 1011.1 |
| 20260503034517 | 55 | 0 | 3.5 | 10.4 | 0.00 | 0.01 | 0.01 | 38 | 1011.1 |
| 20260503034016 | 55 | 338 | 2.6 | 7.8 | 0.00 | 0.01 | 0.01 | 39 | 1011.0 |
| 20260503033516 | 55 | 338 | 2.6 | 7.0 | 0.00 | 0.01 | 0.01 | 39 | 1011.0 |
| 20260503033018 | 55 | 338 | 2.6 | 10.4 | 0.00 | 0.01 | 0.01 | 38 | 1011.0 |
| 20260503032516 | 55 | 0 | 3.5 | 8.7 | 0.00 | 0.01 | 0.01 | 37 | 1011.0 |
| 20260503032036 | 55 | 0 | 2.6 | 7.0 | 0.00 | 0.01 | 0.01 | 38 | 1010.9 |
| 20260503031516 | 56 | 0 | 2.6 | 7.0 | 0.00 | 0.01 | 0.01 | 38 | 1010.9 |
| 20260503031017 | 56 | 0 | 2.6 | 5.2 | 0.00 | 0.01 | 0.01 | 38 | 1011.0 |
| 20260503030516 | 56 | 0 | 2.6 | 7.8 | 0.00 | 0.01 | 0.01 | 38 | 1011.0 |
| 20260503030038 | 56 | 0 | 3.5 | 7.8 | 0.00 | 0.01 | 0.01 | 38 | 1011.1 |
| 20260503025536 | 56 | 0 | 2.6 | 7.0 | 0.00 | 0.01 | 0.01 | 38 | 1011.0 |
| 20260503025016 | 56 | 338 | 3.5 | 9.6 | 0.00 | 0.01 | 0.01 | 38 | 1011.0 |
| 20260503024516 | 56 | 315 | 2.6 | 8.7 | 0.00 | 0.01 | 0.01 | 38 | 1011.1 |
| 20260503024016 | 56 | 338 | 2.6 | 7.8 | 0.00 | 0.01 | 0.01 | 38 | 1011.0 |
| 20260503023516 | 56 | 338 | 2.6 | 7.8 | 0.00 | 0.01 | 0.01 | 38 | 1010.9 |
| 20260503023016 | 56 | 338 | 1.7 | 7.0 | 0.00 | 0.01 | 0.01 | 38 | 1011.1 |
| 20260503022516 | 56 | 23 | 1.7 | 7.0 | 0.00 | 0.01 | 0.01 | 37 | 1011.0 |
| 20260503022038 | 56 | 338 | 3.5 | 11.3 | 0.00 | 0.01 | 0.01 | 37 | 1011.0 |
| 20260503021516 | 56 | 0 | 2.6 | 7.0 | 0.00 | 0.01 | 0.01 | 37 | 1011.0 |
| 20260503021037 | 56 | 0 | 3.5 | 11.3 | 0.00 | 0.01 | 0.01 | 37 | 1011.1 |
| 20260503020536 | 57 | 0 | 2.6 | 7.8 | 0.00 | 0.01 | 0.01 | 38 | 1011.1 |
| 20260503020016 | 57 | 45 | 3.5 | 9.6 | 0.00 | 0.01 | 0.01 | 38 | 1011.1 |
| 20260503015516 | 57 | 0 | 3.5 | 7.8 | 0.00 | 0.01 | 0.01 | 40 | 1011.2 |
| 20260503015016 | 57 | 338 | 1.7 | 4.3 | 0.00 | 0.01 | 0.01 | 40 | 1011.2 |
| 20260503014516 | 57 | 0 | 1.7 | 5.2 | 0.00 | 0.01 | 0.01 | 40 | 1011.2 |
| 20260503014016 | 57 | 338 | 2.6 | 6.1 | 0.00 | 0.01 | 0.01 | 40 | 1011.2 |
| 20260503013517 | 57 | 338 | 1.7 | 7.0 | 0.00 | 0.01 | 0.01 | 39 | 1011.2 |
| 20260503013016 | 57 | 315 | 1.7 | 5.2 | 0.00 | 0.01 | 0.01 | 39 | 1011.1 |
| 20260503012517 | 57 | 338 | 3.5 | 7.8 | 0.00 | 0.01 | 0.01 | 38 | 1011.1 |
| 20260503012017 | 57 | 315 | 2.6 | 7.0 | 0.00 | 0.01 | 0.01 | 38 | 1011.0 |
| 20260503011516 | 57 | 315 | 2.6 | 7.8 | 0.00 | 0.01 | 0.01 | 38 | 1011.0 |
| 20260503011016 | 58 | 315 | 3.5 | 7.8 | 0.00 | 0.01 | 0.01 | 37 | 1011.0 |
| 20260503010516 | 58 | 315 | 3.5 | 8.7 | 0.00 | 0.01 | 0.01 | 37 | 1010.9 |
| 20260503010016 | 58 | 293 | 2.6 | 7.8 | 0.00 | 0.01 | 0.01 | 37 | 1010.9 |
| 20260503005537 | 58 | 0 | 2.6 | 7.0 | 0.00 | 0.01 | 0.01 | 37 | 1010.7 |
| 20260503005016 | 58 | 0 | 2.6 | 7.8 | 0.00 | 0.01 | 0.01 | 37 | 1010.7 |
| 20260503004516 | 58 | 315 | 3.5 | 7.0 | 0.00 | 0.01 | 0.01 | 37 | 1010.7 |
| 20260503004036 | 58 | 338 | 2.6 | 8.7 | 0.00 | 0.01 | 0.01 | 38 | 1010.6 |
| 20260503003536 | 58 | 0 | 2.6 | 7.8 | 0.00 | 0.01 | 0.01 | 37 | 1010.6 |
| 20260503003016 | 58 | 315 | 2.6 | 7.8 | 0.00 | 0.01 | 0.01 | 36 | 1010.5 |
| 20260503002516 | 59 | 338 | 4.3 | 12.2 | 0.00 | 0.01 | 0.01 | 36 | 1010.4 |
| 20260503002016 | 59 | 338 | 3.5 | 7.8 | 0.00 | 0.01 | 0.01 | 37 | 1010.4 |
| 20260503001517 | 59 | 338 | 1.7 | 5.2 | 0.00 | 0.01 | 0.01 | 37 | 1010.4 |
| 20260503001017 | 59 | 315 | 2.6 | 7.0 | 0.00 | 0.01 | 0.01 | 36 | 1010.4 |
| 20260503000516 | 59 | 315 | 1.7 | 4.3 | 0.00 | 0.01 | 0.01 | 37 | 1010.3 |
| 20260503000016 | 60 | 293 | 1.7 | 6.1 | 0.00 | 0.01 | 0.01 | 37 | 1010.3 |
| 20260502235516 | 60 | 338 | 2.6 | 7.8 | 0.00 | 0.01 | 0.01 | 35 | 1010.3 |
| 20260502235016 | 60 | 0 | 2.6 | 5.2 | 0.00 | 0.01 | 0.01 | 35 | 1010.4 |
| 20260502234516 | 60 | 338 | 1.7 | 5.2 | 0.00 | 0.01 | 0.01 | 36 | 1010.4 |
| 20260502234016 | 60 | 0 | 1.7 | 4.3 | 0.00 | 0.01 | 0.01 | 35 | 1010.3 |
| 20260502233538 | 60 | 338 | 1.7 | 4.3 | 0.00 | 0.01 | 0.01 | 35 | 1010.3 |
| 20260502233016 | 61 | 315 | 3.5 | 8.7 | 0.00 | 0.01 | 0.01 | 35 | 1010.2 |
| 20260502232516 | 61 | 315 | 2.6 | 5.2 | 0.00 | 0.01 | 0.01 | 34 | 1010.2 |
| 20260502232017 | 61 | 315 | 2.6 | 7.0 | 0.00 | 0.01 | 0.01 | 35 | 1010.1 |
| 20260502231517 | 61 | 315 | 3.5 | 7.8 | 0.00 | 0.01 | 0.01 | 35 | 1010.1 |
| 20260502231016 | 62 | 338 | 1.7 | 7.0 | 0.00 | 0.01 | 0.01 | 35 | 1010.1 |
| 20260502230516 | 62 | 0 | 2.6 | 5.2 | 0.00 | 0.01 | 0.01 | 34 | 1010.1 |
| 20260502230016 | 62 | 0 | 1.7 | 6.1 | 0.00 | 0.01 | 0.01 | 34 | 1010.2 |
| 20260502225516 | 62 | 0 | 1.7 | 4.3 | 0.00 | 0.01 | 0.01 | 34 | 1010.1 |
| 20260502225036 | 62 | 338 | 1.7 | 4.3 | 0.00 | 0.01 | 0.01 | 34 | 1010.0 |
| 20260502224516 | 62 | 23 | 1.7 | 7.0 | 0.00 | 0.01 | 0.01 | 34 | 1010.0 |
| 20260502224016 | 62 | 0 | 2.6 | 4.3 | 0.00 | 0.01 | 0.01 | 34 | 1009.8 |
| 20260502223516 | 62 | 315 | 2.6 | 7.0 | 0.00 | 0.01 | 0.01 | 33 | 1009.8 |
| 20260502223016 | 62 | 315 | 2.6 | 4.3 | 0.00 | 0.01 | 0.01 | 33 | 1009.8 |
| 20260502222516 | 62 | 293 | 2.6 | 6.1 | 0.00 | 0.01 | 0.01 | 33 | 1009.8 |
| 20260502222017 | 62 | 315 | 1.7 | 4.3 | 0.00 | 0.01 | 0.01 | 33 | 1009.9 |
| 20260502221516 | 62 | 315 | 4.3 | 9.6 | 0.00 | 0.01 | 0.01 | 34 | 1009.9 |
| 20260502221016 | 62 | 0 | 1.7 | 7.8 | 0.00 | 0.01 | 0.01 | 33 | 1010.0 |
| 20260502220516 | 62 | 293 | 1.7 | 3.5 | 0.00 | 0.01 | 0.01 | 33 | 1009.9 |
| 20260502220017 | 62 | 315 | 0.9 | 3.5 | 0.00 | 0.01 | 0.01 | 34 | 1010.0 |
| 20260502215537 | 62 | 338 | 2.6 | 6.1 | 0.00 | 0.01 | 0.01 | 33 | 1009.9 |
| 20260502215016 | 62 | 0 | 2.6 | 7.0 | 0.00 | 0.01 | 0.01 | 33 | 1010.0 |
| 20260502214517 | 62 | 315 | 1.7 | 4.3 | 0.00 | 0.01 | 0.01 | 33 | 1010.0 |
| 20260502214017 | 62 | 0 | 1.7 | 5.2 | 0.00 | 0.01 | 0.01 | 33 | 1010.0 |
| 20260502213515 | 63 | 338 | 0.9 | 3.5 | 0.00 | 0.01 | 0.01 | 34 | 1009.9 |
| 20260502213016 | 63 | 45 | 2.6 | 7.0 | 0.00 | 0.01 | 0.01 | 33 | 1009.8 |
| 20260502212537 | 63 | 0 | 3.5 | 7.8 | 0.00 | 0.01 | 0.01 | 33 | 1009.9 |
| 20260502212016 | 63 | 0 | 2.6 | 7.0 | 0.00 | 0.01 | 0.01 | 33 | 1009.8 |
| 20260502211537 | 63 | 338 | 3.5 | 7.0 | 0.00 | 0.01 | 0.01 | 34 | 1009.7 |
| 20260502211016 | 62 | 0 | 2.6 | 7.8 | 0.00 | 0.01 | 0.01 | 34 | 1009.6 |
| 20260502210516 | 62 | 0 | 2.6 | 7.8 | 0.00 | 0.01 | 0.01 | 34 | 1009.6 |
| 20260502210016 | 63 | 315 | 2.6 | 7.0 | 0.00 | 0.01 | 0.01 | 34 | 1009.6 |
| 20260502205516 | 63 | 270 | 1.7 | 5.2 | 0.00 | 0.01 | 0.01 | 35 | 1009.7 |
| 20260502205016 | 63 | 0 | 2.6 | 6.1 | 0.00 | 0.01 | 0.01 | 34 | 1009.6 |
| 20260502204538 | 63 | 0 | 1.7 | 4.3 | 0.00 | 0.01 | 0.01 | 34 | 1009.6 |
| 20260502204015 | 63 | 338 | 3.5 | 9.6 | 0.00 | 0.01 | 0.01 | 34 | 1009.7 |
| 20260502203535 | 63 | 338 | 2.6 | 7.0 | 0.00 | 0.01 | 0.01 | 35 | 1009.7 |
| 20260502203016 | 63 | 0 | 1.7 | 7.8 | 0.00 | 0.01 | 0.01 | 36 | 1009.7 |
| 20260502202515 | 63 | 0 | 1.7 | 4.3 | 0.00 | 0.01 | 0.01 | 35 | 1009.7 |
| 20260502202016 | 63 | 0 | 2.6 | 7.0 | 0.00 | 0.01 | 0.01 | 35 | 1009.9 |
| 20260502201516 | 63 | 0 | 1.7 | 4.3 | 0.00 | 0.01 | 0.01 | 35 | 1009.9 |
| 20260502201017 | 63 | 0 | 2.6 | 7.0 | 0.00 | 0.01 | 0.01 | 36 | 1010.1 |
| 20260502200516 | 63 | 315 | 2.6 | 7.0 | 0.00 | 0.01 | 0.01 | 37 | 1010.0 |